Torna al catalogo

ECHOSTAR 1 PKM

AttivoHEO
NORAD 23756·ROCKET BODY·🇨🇳 China

Lanciato Dec 28, 1995 da Xichang Satellite Launch Center

Loading…

Prossimi Passaggi (prossime 24 ore)

TLE

AggiornatoSource: Space-Track

Epoca: Sep 14, 2026, 07:07 UTC

1 23756U 95073C   26257.29693059  .00018629  00000-0  68885-3 0  9996
2 23756  24.2740   9.9466 5535535 323.5476   9.2065  4.83764269365879

Traccia ECHOSTAR 1 PKM in tempo reale con AllMySat

Download on the App Store